Flag for Cuba Weather past 2 weeks in Holguín, Cuba

Now
91 °F

Passing clouds.


Feels Like: 94 °F
Forecast: 75 / 92 °F
Wind: 17 mph from East

Location: Holguin Civ / Mil

Current Time: Jun 30, 2015 at 1:23:46 PM

Latest Report: Jun 30, 2015 at 12:50 PM


Visibility: 6 mi

Pressure: 30.09 "Hg

Humidity: 44%

Dew point: 66 °F

Location of HolguínLocation

Historic Weather in Holguín — Graph

°F

Holguín temperature yesterday

Maximum temperature yesterday: 99 °F (at 2:53 PM)
Minimum temperature yesterday: 75 °F (at 6:53 AM)
Average temperature yesterday: 86 °F

Past Weeks' High & Low Weather Summary

 TemperatureHumidityPressure
High99 °F (Jun 28, 1:50 PM)94% (Jun 17, 5:50 AM)30.12 "Hg (Jun 17, 5:50 AM)
Low72 °F (Jun 16, 1:50 AM)28% (Jun 26, 2:50 PM)29.98 "Hg (Jun 15, 3:50 PM)
Average83 °F66%30.04 "Hg
* Reported Jun 15 12:50 PM — Jun 30 11:50 AM, Holguín, Weather by CustomWeather, © 2015

Note: Actual official high and low records may vary slightly from our data, if they occured in-between our weather recording intervals... More about our weather records

Advertising

Holguín weather history for previous 24 hours

 ConditionsComfort  
Time TempWeatherWind HumidityBarometerVisibility
11:50 AM
Tue, Jun 30
91 °FScattered clouds.17 mph44%30.09 "Hg6 mi
10:50 AM90 °FPartly sunny.16 mph52%30.12 "Hg6 mi
9:51 AM86 °FPartly sunny.14 mph62%30.12 "Hg5 mi
8:50 AM84 °FScattered clouds.13 mph70%30.09 "Hg6 mi
7:50 AM81 °FFog.12 mph79%30.09 "Hg4 mi
6:50 AM79 °FClear.9 mph84%30.09 "Hg5 mi
5:51 AM79 °FPassing clouds.8 mph84%30.09 "Hg5 mi
4:50 AM79 °FPassing clouds.7 mph84%30.09 "Hg6 mi
3:50 AM79 °FPassing clouds.7 mph84%30.07 "Hg6 mi
2:50 AM79 °FPassing clouds.7 mph84%30.07 "Hg6 mi
1:50 AM79 °FPassing clouds.7 mph79%30.09 "HgN/A
12:51 AM79 °FPassing clouds.8 mph84%30.09 "HgN/A
11:50 PM
Mon, Jun 29
79 °FPassing clouds.7 mph79%30.09 "HgN/A
10:50 PM81 °FPassing clouds.9 mph74%30.09 "HgN/A
9:50 PM82 °FPassing clouds.7 mph66%30.09 "HgN/A
8:50 PM84 °FPassing clouds.9 mph66%30.07 "HgN/A
7:50 PM86 °FPassing clouds.10 mph59%30.01 "Hg6 mi
6:50 PM90 °FPassing clouds.15 mph52%30.01 "Hg6 mi
5:51 PM95 °FScattered clouds.10 mph44%29.98 "Hg6 mi
4:50 PM97 °FScattered clouds.9 mph39%29.98 "Hg6 mi
3:51 PM99 °FScattered clouds.6 mph33%30.01 "Hg6 mi
2:53 PM99 °FScattered clouds.9 mph35%30.01 "Hg6 mi
1:50 PM97 °FScattered clouds.9 mph37%30.04 "Hg6 mi
Weather by CustomWeather, © 2015

See weather overviewHow to use our weather pages